TimeCDT,TemperatureF,Dew PointF,Humidity,Sea Level PressureIn,VisibilityMPH,Wind Direction,Wind SpeedMPH,Gust SpeedMPH,PrecipitationIn,Events,Conditions,WindDirDegrees,DateUTC
12:13 AM,41.0,35.6,81,29.92,10.0,WNW,5.8,-,N/A,,Clear,300,2012-10-15 05:13:00
12:33 AM,41.0,35.6,81,29.92,10.0,WNW,4.6,-,N/A,,Clear,300,2012-10-15 05:33:00
12:53 AM,39.2,35.6,87,29.92,10.0,WNW,5.8,-,N/A,,Clear,300,2012-10-15 05:53:00
1:13 AM,39.2,35.6,87,29.92,10.0,WNW,5.8,-,N/A,,Clear,290,2012-10-15 06:13:00
1:33 AM,39.2,35.6,87,29.93,10.0,WNW,5.8,-,N/A,,Clear,300,2012-10-15 06:33:00
1:53 AM,39.2,35.6,87,29.93,10.0,WNW,5.8,-,N/A,,Clear,290,2012-10-15 06:53:00
2:13 AM,39.2,35.6,87,29.93,10.0,West,4.6,-,N/A,,Clear,280,2012-10-15 07:13:00
2:33 AM,37.4,35.6,93,29.93,10.0,WNW,4.6,-,N/A,,Clear,300,2012-10-15 07:33:00
2:53 AM,37.4,35.6,93,29.93,10.0,West,4.6,-,N/A,,Clear,280,2012-10-15 07:53:00
3:12 AM,37.4,35.6,93,29.93,10.0,WNW,4.6,-,N/A,,Clear,290,2012-10-15 08:12:00
3:33 AM,37.4,35.6,93,29.93,10.0,WNW,8.1,-,N/A,,Clear,290,2012-10-15 08:33:00
3:53 AM,37.4,35.6,93,29.93,10.0,WNW,3.5,-,N/A,,Clear,300,2012-10-15 08:53:00
4:13 AM,37.4,35.6,93,29.92,10.0,WNW,4.6,-,N/A,,Clear,300,2012-10-15 09:13:00
4:33 AM,37.4,35.6,93,29.92,10.0,WNW,3.5,-,N/A,,Clear,300,2012-10-15 09:33:00
4:53 AM,35.6,33.8,93,29.92,10.0,Calm,Calm,-,N/A,,Clear,0,2012-10-15 09:53:00
5:13 AM,35.6,33.8,93,29.93,10.0,Calm,Calm,-,N/A,,Clear,0,2012-10-15 10:13:00
5:33 AM,33.8,32.0,93,29.93,10.0,Calm,Calm,-,N/A,,Clear,0,2012-10-15 10:33:00
5:53 AM,33.8,32.0,93,29.92,10.0,Calm,Calm,-,N/A,,Clear,0,2012-10-15 10:53:00
6:13 AM,32.0,30.2,93,29.92,10.0,Calm,Calm,-,N/A,,Clear,0,2012-10-15 11:13:00
6:33 AM,32.0,30.2,93,29.93,10.0,WSW,4.6,-,N/A,,Clear,250,2012-10-15 11:33:00
6:53 AM,33.8,32.0,93,29.93,10.0,Calm,Calm,-,N/A,,Clear,0,2012-10-15 11:53:00
7:13 AM,32.0,30.2,93,29.93,10.0,Calm,Calm,-,N/A,,Clear,0,2012-10-15 12:13:00
7:33 AM,30.2,30.2,100,29.93,10.0,Calm,Calm,-,N/A,,Clear,0,2012-10-15 12:33:00
7:53 AM,32.0,32.0,100,29.94,7.0,Calm,Calm,-,N/A,,Clear,0,2012-10-15 12:53:00
8:13 AM,33.8,32.0,93,29.94,7.0,Calm,Calm,-,N/A,,Clear,0,2012-10-15 13:13:00
8:33 AM,37.4,35.6,93,29.95,10.0,Calm,Calm,-,N/A,,Clear,0,2012-10-15 13:33:00
8:53 AM,42.8,41.0,93,29.95,10.0,Calm,Calm,-,N/A,,Clear,0,2012-10-15 13:53:00
9:13 AM,41.0,39.2,93,29.95,10.0,Calm,Calm,-,N/A,,Clear,0,2012-10-15 14:13:00
9:33 AM,44.6,42.8,93,29.95,10.0,Calm,Calm,-,N/A,,Clear,0,2012-10-15 14:33:00
9:53 AM,51.8,44.6,76,29.95,10.0,Calm,Calm,-,N/A,,Clear,0,2012-10-15 14:53:00
10:13 AM,53.6,46.4,77,29.95,10.0,Calm,Calm,-,N/A,,Clear,0,2012-10-15 15:13:00
10:33 AM,53.6,46.4,77,29.95,10.0,SW,3.5,-,N/A,,Clear,220,2012-10-15 15:33:00
10:53 AM,57.2,42.8,59,29.95,10.0,WSW,3.5,-,N/A,,Clear,240,2012-10-15 15:53:00
11:13 AM,55.4,37.4,51,29.95,4.0,Calm,Calm,-,N/A,,Haze,0,2012-10-15 16:13:00
11:33 AM,55.4,37.4,51,29.95,5.0,SW,4.6,-,N/A,,Haze,230,2012-10-15 16:33:00
11:53 AM,57.2,35.6,44,29.94,7.0,SSW,3.5,-,N/A,,Clear,200,2012-10-15 16:53:00
12:13 PM,59.0,37.4,45,29.93,7.0,SSE,4.6,-,N/A,,Clear,160,2012-10-15 17:13:00
12:33 PM,60.8,44.6,55,29.93,5.0,SSE,4.6,-,N/A,,Haze,150,2012-10-15 17:33:00
12:53 PM,59.0,41.0,51,29.92,5.0,SSE,4.6,-,N/A,,Haze,160,2012-10-15 17:53:00
1:13 PM,60.8,39.2,45,29.91,10.0,SSW,3.5,-,N/A,,Clear,210,2012-10-15 18:13:00
1:33 PM,60.8,39.2,45,29.89,10.0,Calm,Calm,-,N/A,,Unknown,0,2012-10-15 18:33:00
1:53 PM,62.6,39.2,42,29.88,10.0,SSE,4.6,-,N/A,,Clear,150,2012-10-15 18:53:00
2:13 PM,64.4,37.4,37,29.87,10.0,SE,6.9,-,N/A,,Clear,130,2012-10-15 19:13:00
2:33 PM,62.6,35.6,37,29.86,10.0,SE,6.9,-,N/A,,Scattered Clouds,140,2012-10-15 19:33:00
2:53 PM,60.8,35.6,39,29.86,10.0,SE,5.8,-,N/A,,Scattered Clouds,140,2012-10-15 19:53:00
3:13 PM,62.6,37.4,39,29.85,10.0,SSE,4.6,-,N/A,,Mostly Cloudy,150,2012-10-15 20:13:00
3:33 PM,62.6,37.4,39,29.85,10.0,SSE,4.6,-,N/A,,Overcast,150,2012-10-15 20:33:00
3:53 PM,60.8,35.6,39,29.84,10.0,SSE,5.8,-,N/A,,Overcast,150,2012-10-15 20:53:00
4:13 PM,60.8,35.6,39,29.83,10.0,SSE,4.6,-,N/A,,Mostly Cloudy,150,2012-10-15 21:13:00
4:33 PM,60.8,35.6,39,29.83,7.0,SSE,5.8,-,N/A,,Mostly Cloudy,150,2012-10-15 21:33:00
4:53 PM,60.8,37.4,42,29.82,10.0,SSE,5.8,-,N/A,Rain,Light Rain,150,2012-10-15 21:53:00
5:13 PM,60.8,35.6,39,29.81,10.0,SSE,6.9,-,N/A,Rain,Light Rain,150,2012-10-15 22:13:00
5:34 PM,60.8,35.6,39,29.81,10.0,SE,6.9,-,N/A,Rain,Light Rain,140,2012-10-15 22:34:00
5:53 PM,60.8,35.6,39,29.80,10.0,SE,5.8,-,N/A,Rain,Light Rain,140,2012-10-15 22:53:00
6:13 PM,59.0,35.6,42,29.79,10.0,SE,6.9,-,N/A,,Clear,140,2012-10-15 23:13:00
6:34 PM,57.2,35.6,44,29.79,10.0,SE,6.9,-,N/A,,Clear,140,2012-10-15 23:34:00
6:53 PM,57.2,37.4,48,29.77,10.0,SE,5.8,-,N/A,,Clear,140,2012-10-15 23:53:00
7:13 PM,57.2,35.6,44,29.77,10.0,SE,6.9,-,N/A,,Clear,140,2012-10-16 00:13:00
7:34 PM,57.2,35.6,44,29.77,10.0,SE,8.1,-,N/A,,Clear,140,2012-10-16 00:34:00
7:53 PM,57.2,35.6,44,29.77,10.0,SE,6.9,-,N/A,,Clear,140,2012-10-16 00:53:00
8:13 PM,57.2,35.6,44,29.76,10.0,SE,8.1,-,N/A,,Clear,140,2012-10-16 01:13:00
8:33 PM,57.2,35.6,44,29.75,10.0,SE,8.1,-,N/A,,Clear,140,2012-10-16 01:33:00
8:53 PM,57.2,35.6,44,29.75,10.0,SSE,6.9,-,N/A,,Clear,150,2012-10-16 01:53:00
9:14 PM,57.2,35.6,44,29.74,10.0,SSE,6.9,-,N/A,,Clear,150,2012-10-16 02:14:00
9:33 PM,57.2,35.6,44,29.74,10.0,SSE,8.1,-,N/A,,Clear,150,2012-10-16 02:33:00
9:53 PM,57.2,35.6,44,29.74,10.0,SSE,9.2,-,N/A,,Clear,150,2012-10-16 02:53:00
10:14 PM,57.2,37.4,48,29.72,10.0,SSE,10.4,-,N/A,,Clear,150,2012-10-16 03:14:00
10:33 PM,57.2,37.4,48,29.71,10.0,SSE,6.9,-,N/A,,Clear,150,2012-10-16 03:33:00
10:53 PM,57.2,37.4,48,29.71,10.0,SSE,9.2,-,N/A,,Clear,150,2012-10-16 03:53:00
11:14 PM,55.4,37.4,51,29.70,10.0,SSE,6.9,-,N/A,,Clear,160,2012-10-16 04:14:00
11:33 PM,55.4,39.2,54,29.69,10.0,SSE,9.2,-,N/A,,Clear,150,2012-10-16 04:33:00
11:53 PM,57.2,39.2,51,29.68,10.0,SSE,9.2,-,N/A,,Clear,150,2012-10-16 04:53:00